Regional Weather Roundup
Issued by NWS Raleigh/Durham, NC

Home | Current Version | Previous Version | Text Only | Print | Product List | Glossary On
Versions: 1 2 3 4 5 6 7 8 9 10 11 12 13 14 15 16 17 18 19 20 21 22 23 24 25 26 27 28 29 30 31 32 33 34 35 36 37 38 39 40 41 42 43 44 45 46 47 48 49 50
932
ASUS42 KRAH 110510
RWRRAH
NORTH CAROLINA WEATHER ROUNDUP
NATIONAL WEATHER SERVICE RALEIGH NC
1200 AM EST SUN DEC 11 2016

NOTE: "FAIR" INDICATES FEW OR NO CLOUDS BELOW 12,000 FEET WITH NO
SIGNIFICANT WEATHER AND/OR OBSTRUCTIONS TO VISIBILITY.

NCZ001-053-055-056-065-067-110600-
WESTERN NORTH CAROLINA

CITY           SKY/WX    TMP DP  RH WIND       PRES   REMARKS
ASHEVILLE      CLEAR     25  12  58 SE5       30.41F WCI  19
JEFFERSON      CLEAR     23   6  48 CALM      30.36S
MORGANTON      CLEAR     23  19  85 CALM      30.51S
HICKORY        CLEAR     31  15  52 CALM      30.46S
RUTHERFORDTON  CLEAR     27  17  67 CALM      30.47F
MOUNT AIRY     CLEAR     28  20  71 CALM      30.48R
BOONE          CLEAR     18  11  74 CALM      30.36F
$$

NCZ021-022-025-041-071-084-088-110600-
CENTRAL NORTH CAROLINA

CITY           SKY/WX    TMP DP  RH WIND       PRES   REMARKS
CHARLOTTE      CLEAR     31  18  58 SE5       30.49S WCI  26
GREENSBORO     PTCLDY    26  18  71 S6        30.47F WCI  19
WINSTON-SALEM  CLEAR     25  16  68 CALM      30.49S
RALEIGH-DURHAM CLEAR     27  17  66 CALM      30.52S
FORT BRAGG     CLEAR     25  22  88 CALM      30.51F
FAYETTEVILLE   CLEAR     27  21  78 CALM      30.51F
BURLINGTON     CLEAR     23  17  78 CALM      30.49F
LAURINBURG     CLEAR     28  22  78 CALM      30.52F
$$

NCZ011-015-027-028-043-044-047-080-103-110600-
NORTHEASTERN NORTH CAROLINA

CITY           SKY/WX    TMP DP  RH WIND       PRES   REMARKS
ROCKY MT-WILSO CLEAR     24  21  88 CALM      30.54S
GREENVILLE     CLEAR     27  27 100 CALM      30.54R
WASHINGTON     CLEAR     25  20  81 CALM      30.55R
ELIZABETH CITY CLEAR     26  23  88 CALM      30.54F
MANTEO         CLEAR     34  18  52 N3        30.53F
CAPE HATTERAS  CLEAR     38  22  52 VRB5      30.51F WCI  34
$$

NCZ078-087-090-091-093-098-101-110600-
SOUTHEASTERN NORTH CAROLINA

CITY           SKY/WX    TMP DP  RH WIND       PRES   REMARKS
LUMBERTON      CLEAR     25  24  96 CALM      30.51F
GOLDSBORO      CLEAR     26  21  80 CALM      30.52F
KINSTON        CLEAR     23  20  89 CALM      30.55S
KENANSVILLE    CLEAR     25  21  86 CALM      30.54S
NEW BERN       CLEAR     25  24  96 CALM      30.54F
CHERRY POINT   CLEAR     28  22  78 CALM      30.54S
BEAUFORT       CLEAR     30  21  69 CALM      30.52F
JACKSONVILLE   CLEAR     27  24  89 CALM      30.54R
WILMINGTON     CLEAR     27  24  89 CALM      30.53F
$$





USA.gov is the U.S. government's official web portal to all federal, state and local government web resources and services.